Simultaneous Nadir Overpasses (SNOs) Predictions

Prediction of SNOs between FY3D and LANDSAT-8 Satellite Orbit:

Table of predicted SNOs for the next 14.0 days since TLE Epoch: 1/4/2020
Index Date (FY3D) Time (FY3D) Lat,Lon (FY3D) SZA (FY3D ) Date (LANDSAT-8) Time (LANDSAT-8) Lat,Lon (LANDSAT-8) SZA (LANDSAT-8 ) Distance(km) Time Diff (sec)
1 01/04/2020 15:30:34 -70.48, 124.10 86.85 01/04/2020 15:31:28 -70.46, 124.12 86.88 2.39 54
2 01/04/2020 16:21:18 70.36, -68.40 93.03 01/04/2020 16:20:55 70.35, -68.39 93.02 0.93 23
3 01/04/2020 17:11:45 -69.53, 100.18 87.84 01/04/2020 17:10:37 -69.58, 98.16 87.73 78.75 68
4 01/07/2020 07:46:59 -70.47,-119.99 87.16 01/07/2020 07:47:56 -70.47,-119.98 87.16 0.13 57
5 01/07/2020 08:37:43 70.35, 47.51 92.72 01/07/2020 08:37:23 70.36, 47.50 92.73 1.14 20
6 01/07/2020 09:28:12 -69.62,-144.06 88.04 01/07/2020 09:27:03 -69.71,-145.79 87.91 67.47 69
7 01/10/2020 00:03:24 -70.46, -4.08 87.52 01/10/2020 00:04:24 -70.48, -4.08 87.50 2.28 60
8 01/10/2020 00:54:07 70.35, 163.42 92.36 01/10/2020 00:53:50 70.37, 163.40 92.39 2.97 17
9 01/10/2020 01:44:38 -69.72, -28.31 88.30 01/10/2020 01:43:29 -69.77, -29.82 88.20 58.47 69
10 01/12/2020 16:19:49 -70.51, 111.75 87.87 01/12/2020 16:20:51 -70.49, 111.81 87.90 2.75 62
11 01/12/2020 17:10:33 70.39, -80.76 92.01 01/12/2020 17:10:18 70.38, -80.71 91.99 2.30 15
12 01/12/2020 18:01:06 -69.87, 87.37 88.55 01/12/2020 17:59:55 -69.89, 86.23 88.48 43.57 71
13 01/15/2020 08:36:14 -70.50,-132.34 88.33 01/15/2020 08:37:19 -70.50,-132.29 88.34 1.67 65
14 01/15/2020 09:26:58 70.39, 35.15 91.55 01/15/2020 09:26:46 70.39, 35.18 91.55 1.23 12
15 01/15/2020 10:17:33 -69.97,-156.88 88.90 01/15/2020 10:16:21 -70.01,-157.72 88.82 32.30 72
16 01/18/2020 00:52:39 -70.49, -16.43 88.84 01/18/2020 00:53:47 -70.51, -16.40 88.84 1.94 68
17 01/18/2020 01:43:23 70.38, 151.05 91.04 01/18/2020 01:43:14 70.39, 151.07 91.05 1.14 9
18 01/18/2020 02:34:00 -70.07, -41.14 89.30 01/18/2020 02:32:47 -70.13, -41.68 89.22 21.52 73




NCC Satellite Simultaneous Nadir Overpasses (SNOs) Prediction Service
